Weather History for Rochelle, IL

Change the Weather History Date:

Saturday, August 10, 2013

  Actual Average (KRFD) Record (KRFD)
Temperature  
Mean Temperature 66 °F 72 °F  
Max Temperature 79 °F 83 °F 98 °F (1944)
Min Temperature 53 °F 62 °F 48 °F (1917)
Degree Days  
Heating Degree Days 0 0  
Month to date heating degree days 0  
Since 1 June heating degree days 34  
Since 1 July heating degree days 3  
Cooling Degree Days 0 8  
Month to date cooling degree days 80  
Year to date cooling degree days 584  
Since 1 June cooling degree days 529  
Growing Degree Days 16 (Base 50)    
Moisture  
Dew Point 56 °F    
Average Humidity 71    
Maximum Humidity 95    
Minimum Humidity 39    
Precipitation  
Precipitation 0.00 in 0.15 in 1.87 in (1994)
Month to date precipitation 1.48  
Year to date precipitation 22.55  
Snow  
Snow 0.00 in 0.00 in 0.00 in ()
Month to date snowfall 0.0  
Since 1 June snowfall 0.0  
Since 1 July snowfall 0.0  
Snow Depth -    
Sea Level Pressure  
Sea Level Pressure 30.13 in    
Wind  
Wind Speed 2 mph (NNW)    
Max Wind Speed 9 mph    
Max Gust Speed -    
Visibility 10 miles    
Events      
T = Trace of Precipitation, MM = Missing Value Source: NWS Daily Summary

Daily Weather History Graph

Daily Weather History Graph

Search for Another Location

Airport:

Trip Planner

Search our weather history database for the weather conditions in past years. The results will help you decide how hot, cold, wet, or windy it might be!

Date:

Astronomy

Aug. 10, 2013 Rise Set
Actual Time 5:59 AM CDT 8:03 PM CDT
Civil Twilight 5:28 AM CDT 8:33 PM CDT
Nautical Twilight 4:51 AM CDT 9:10 PM CDT
Astronomical Twilight 4:10 AM CDT 9:51 PM CDT
Moon 9:50 AM CDT (8/10) 9:39 PM CDT (8/10)
Length of Visible Light 15h 04m
Length of Day
14h 03m
Waxing Crescent, 14% of the Moon is Illuminated
Aug 10
Waxing Crescent
Aug 14
First Quarter
Aug 20
Full
Aug 28
Last Quarter
Sep 5
New

Hourly Weather History & Observations

Time (CDT) Temp. Dew Point Humidity Pressure Visibility Wind Dir Wind Speed Gust Speed Precip Events Conditions
12:15 AM 65.3 °F 60.6 °F 85% 30.08 in 10.0 mi NW 3.5 mph - N/A   Clear
12:35 AM 64.8 °F 60.3 °F 85% 30.08 in 10.0 mi Calm Calm - N/A   Clear
12:55 AM 62.8 °F 59.7 °F 90% 30.09 in 10.0 mi Calm Calm - N/A   Clear
1:15 AM 61.9 °F 59.4 °F 91% 30.09 in 10.0 mi Calm Calm - N/A   Clear
1:35 AM 60.4 °F 58.1 °F 92% 30.09 in 10.0 mi Calm Calm - N/A   Clear
1:55 AM 59.9 °F 57.2 °F 91% 30.09 in 10.0 mi Calm Calm - N/A   Scattered Clouds
2:15 AM 59.2 °F 57.2 °F 93% 30.09 in 10.0 mi Calm Calm - N/A   Clear
2:35 AM 59.2 °F 56.5 °F 91% 30.10 in 10.0 mi Calm Calm - N/A   Clear
2:55 AM 57.9 °F 55.8 °F 92% 30.10 in 10.0 mi Calm Calm - N/A   Clear
3:15 AM 57.0 °F 54.9 °F 92% 30.11 in 10.0 mi Calm Calm - N/A   Clear
3:35 AM 57.2 °F 55.0 °F 92% 30.11 in 10.0 mi Calm Calm - N/A   Clear
3:55 AM 56.7 °F 54.7 °F 93% 30.11 in 10.0 mi Calm Calm - N/A   Clear
4:15 AM 54.9 °F 53.2 °F 94% 30.11 in 10.0 mi Calm Calm - N/A   Clear
4:35 AM 54.7 °F 53.2 °F 95% 30.11 in 7.0 mi Calm Calm - N/A   Clear
4:55 AM 54.5 °F 52.9 °F 94% 30.12 in 5.0 mi Calm Calm - N/A   Clear
5:15 AM 53.6 °F 52.2 °F 95% 30.12 in 2.0 mi Calm Calm - N/A   Clear
5:35 AM 53.2 °F 52.0 °F 95% 30.12 in 3.0 mi Calm Calm - N/A   Clear
5:55 AM 54.0 °F 52.7 °F 95% 30.12 in 10.0 mi Calm Calm - N/A   Clear
6:15 AM 55.0 °F 53.4 °F 94% 30.12 in 10.0 mi Calm Calm - N/A   Clear
6:35 AM 56.1 °F 54.1 °F 93% 30.13 in 10.0 mi Calm Calm - N/A   Clear
6:55 AM 58.3 °F 55.9 °F 92% 30.13 in 10.0 mi Calm Calm - N/A   Clear
7:15 AM 59.5 °F 56.3 °F 89% 30.13 in 10.0 mi NNW 3.5 mph - N/A   Clear
7:35 AM 60.8 °F 57.2 °F 88% 30.13 in 10.0 mi NNW 4.6 mph - N/A   Clear
7:55 AM 61.9 °F 57.9 °F 87% 30.13 in 10.0 mi NNW 3.5 mph - N/A   Clear
8:15 AM 63.5 °F 58.3 °F 83% 30.13 in 10.0 mi North 3.5 mph - N/A   Clear
8:35 AM 65.1 °F 59.4 °F 82% 30.14 in 10.0 mi NNW 3.5 mph - N/A   Clear
8:55 AM 65.5 °F 59.0 °F 80% 30.14 in 10.0 mi Calm Calm - N/A   Scattered Clouds
9:15 AM 67.6 °F 60.1 °F 77% 30.14 in 10.0 mi Calm Calm - N/A   Scattered Clouds
9:35 AM 69.8 °F 60.4 °F 72% 30.15 in 10.0 mi Calm Calm - N/A   Clear
9:55 AM 71.1 °F 60.3 °F 69% 30.15 in 10.0 mi Calm Calm - N/A   Clear
10:15 AM 72.5 °F 59.4 °F 63% 30.15 in 10.0 mi Calm Calm - N/A   Clear
10:35 AM 73.8 °F 56.8 °F 55% 30.16 in 10.0 mi Calm Calm - N/A   Clear
10:55 AM 74.3 °F 58.1 °F 57% 30.16 in 10.0 mi Calm Calm - N/A   Clear
11:15 AM 75.2 °F 55.6 °F 50% 30.16 in 10.0 mi WSW 4.6 mph - N/A   Scattered Clouds
11:35 AM 75.7 °F 54.3 °F 47% 30.16 in 10.0 mi West 4.6 mph - N/A   Clear
11:55 AM 76.6 °F 57.4 °F 51% 30.16 in 10.0 mi Calm Calm - N/A   Mostly Cloudy
12:15 PM 77.2 °F 57.0 °F 50% 30.16 in 10.0 mi WNW 4.6 mph - N/A   Mostly Cloudy
12:35 PM 75.2 °F 55.6 °F 50% 30.15 in 10.0 mi Calm Calm - N/A   Overcast
12:55 PM 77.5 °F 55.0 °F 46% 30.15 in 10.0 mi NW 6.9 mph - N/A   Mostly Cloudy
1:15 PM 75.6 °F 54.9 °F 48% 30.15 in 10.0 mi Calm Calm - N/A   Overcast
1:35 PM 77.7 °F 55.2 °F 46% 30.15 in 10.0 mi NW 4.6 mph - N/A   Mostly Cloudy
1:55 PM 76.3 °F 55.4 °F 48% 30.15 in 10.0 mi NNW 5.8 mph - N/A   Mostly Cloudy
2:15 PM 78.3 °F 54.9 °F 44% 30.14 in 10.0 mi NW 6.9 mph - N/A   Scattered Clouds
2:35 PM 78.6 °F 53.4 °F 42% 30.14 in 10.0 mi NNW 5.8 mph - N/A   Scattered Clouds
2:55 PM 77.0 °F 54.0 °F 45% 30.14 in 10.0 mi NW 6.9 mph - N/A   Clear
3:15 PM 76.6 °F 53.4 °F 44% 30.14 in 10.0 mi NNW 5.8 mph - N/A   Mostly Cloudy
3:35 PM 76.1 °F 53.1 °F 45% 30.14 in 10.0 mi NW 9.2 mph - N/A   Overcast
3:55 PM 78.3 °F 53.2 °F 42% 30.13 in 10.0 mi NW 5.8 mph - N/A   Scattered Clouds
4:15 PM 78.3 °F 51.3 °F 39% 30.13 in 10.0 mi NW 8.1 mph - N/A   Clear
4:35 PM 76.8 °F 52.0 °F 42% 30.12 in 10.0 mi NNW 6.9 mph - N/A   Clear
4:55 PM 74.8 °F 53.4 °F 47% 30.12 in 10.0 mi North 6.9 mph - N/A   Clear
5:15 PM 76.8 °F 53.2 °F 44% 30.12 in 10.0 mi North 8.1 mph - N/A   Scattered Clouds
5:35 PM 75.6 °F 53.4 °F 46% 30.12 in 10.0 mi NNW 6.9 mph - N/A   Mostly Cloudy
5:55 PM 76.1 °F 53.8 °F 46% 30.12 in 10.0 mi North 9.2 mph - N/A   Overcast
6:15 PM 76.1 °F 52.9 °F 44% 30.12 in 10.0 mi North 8.1 mph - N/A   Mostly Cloudy
6:35 PM 75.2 °F 53.1 °F 46% 30.12 in 10.0 mi North 8.1 mph - N/A   Scattered Clouds
6:55 PM 73.9 °F 53.4 °F 49% 30.12 in 10.0 mi North 8.1 mph - N/A   Clear
7:15 PM 71.6 °F 55.0 °F 56% 30.12 in 10.0 mi North 4.6 mph - N/A   Clear
7:35 PM 70.2 °F 55.4 °F 59% 30.12 in 10.0 mi North 3.5 mph - N/A   Clear
7:55 PM 68.5 °F 55.9 °F 64% 30.12 in 10.0 mi North 3.5 mph - N/A   Clear
8:15 PM 66.9 °F 56.7 °F 70% 30.12 in 10.0 mi NNW 3.5 mph - N/A   Clear
8:35 PM 64.0 °F 57.2 °F 78% 30.13 in 10.0 mi Calm Calm - N/A   Clear
8:55 PM 63.7 °F 57.2 °F 79% 30.13 in 10.0 mi Calm Calm - N/A   Clear
9:15 PM 62.1 °F 56.8 °F 83% 30.15 in 10.0 mi Calm Calm - N/A   Clear
9:35 PM 59.9 °F 56.3 °F 88% 30.15 in 10.0 mi Calm Calm - N/A   Clear
9:55 PM 60.3 °F 56.3 °F 87% 30.15 in 10.0 mi Calm Calm - N/A   Clear
10:15 PM 59.5 °F 55.8 °F 87% 30.14 in 10.0 mi Calm Calm - N/A   Clear
10:35 PM 58.3 °F 55.2 °F 90% 30.14 in 10.0 mi Calm Calm - N/A   Clear
10:55 PM 58.6 °F 54.7 °F 87% 30.14 in 10.0 mi Calm Calm - N/A   Clear
11:15 PM 58.3 °F 54.3 °F 87% 30.14 in 10.0 mi ESE 4.6 mph - N/A   Clear
11:35 PM 57.7 °F 53.6 °F 86% 30.14 in 10.0 mi Calm Calm - N/A   Clear
11:55 PM 55.8 °F 52.9 °F 90% 30.14 in 10.0 mi South 3.5 mph - N/A   Clear